Location: Rounton
(54.4000°N, 1.3500°W)
Time: 08:05:35
(UTC+01:00)

Envisat - Visible Passes

Search period start: 20 April 2024 00:00
Search period end: 30 April 2024 00:00
Orbit: 762 x 764 km, 98.3° (Epoch: 19 April)

Date Brightness Start Highest point End Pass type
(mag) Time Alt. Az. Time Alt. Az. Time Alt. Az.
20 Apr 5.3 03:18:11 10° NE 03:21:49 19° E 03:25:25 10° SE visible
20 Apr 3.0 04:56:19 10° NNE 05:01:25 81° WNW 05:06:30 10° SSW visible
21 Apr 3.7 04:19:01 10° NNE 04:24:02 54° E 04:28:59 10° S visible
22 Apr 4.7 03:42:00 10° NNE 03:46:25 29° E 03:50:48 10° SSE visible
23 Apr 5.5 03:05:38 10° NE 03:08:37 15° E 03:11:36 10° ESE visible
23 Apr 3.1 04:43:17 10° NNE 04:48:25 83° ESE 04:53:30 10° SSW visible
24 Apr 4.1 04:06:05 10° NNE 04:10:57 44° E 04:15:47 10° S visible
25 Apr 5.1 03:29:13 10° NE 03:33:17 23° E 03:37:18 10° SE visible
26 Apr 5.6 02:53:22 10° ENE 02:55:24 12° E 02:57:25 10° ESE visible
26 Apr 3.4 04:30:17 10° NNE 04:35:23 67° ESE 04:40:26 10° S visible
27 Apr 4.4 03:53:10 10° NNE 03:57:50 35° E 04:02:28 10° SSE visible
28 Apr 5.3 03:16:31 10° NE 03:20:05 19° E 03:23:39 10° SE visible
29 Apr 3.7 04:17:18 10° NNE 04:22:18 53° E 04:27:16 10° S visible
